Content
SEND FEEDBACK

Daily
Averages
Monthly
Summary
United States of America

SOUTH LAKE TAHOE, CALIFORNIA


Home > North America > United States > California
Elevation: 6263 feet     Latitude: 38 53N     Longitude: 119 59W

WEATHER
 
SELECT A DAY
Number of Records: 174,420;   Date Range: 1/1/95 - 7/29/14
 
SHARE

PRINT THIS DATA

[ ← Previous Day ]
WEATHER ALMANAC - FEBRUARY 16, 2013
[ Next Day → ]
[ °C ]   °F
Weather ElementAverageHighLow
Temperature32.3 °F51.1 °F (2:53 pm)17.1 °F (6:53 am)
Dewpoint17.3 °F23 °F (12:53 pm)10 °F (3:53 pm)
Humidity58.7 %81 % (1:53 am)19 % (3:53 pm)
Barometer30.26 in30.42 in (7:53 am)30.08 in (11:53 pm)
Wind Speed2.6 mph8.1 mph (1:53 pm)
Weather ElementAverage
Visibility10 mi
Wind DirectionENE (69.6 °)

Weather ElementTotal
Precipitation---
Heating Degree Days30.9 (Base 65)
Averaged from 23 records on February 16, 2013
WEATHER CONDITIONS BREAKOUT
WIND DIRECTION BREAKOUT
WEATHER BY HOUR - FEBRUARY 16, 2013
[ °C ]   °F
Local TimeTemperatureDewpointHumidityBarometerVisibilityWind DirectionWind SpeedGust SpeedPrecipitationEventsConditions
1:53 AM23.0 °F18.0 °F81 %30.39 in9.0 miSouth (190°)3.5 mphClear
2:53 AM21.0 °F15.1 °F78 %30.36 in10.0 miCalmClear
3:53 AM19.9 °F15.1 °F81 %30.35 in10.0 miSouth (190°)3.5 mphClear
4:53 AM19.0 °F14.0 °F81 %30.38 in10.0 miSouth (180°)3.5 mphClear
5:53 AM18.0 °F12.9 °F81 %30.40 in10.0 miCalmClear
6:53 AM17.1 °F12.0 °F81 %30.41 in10.0 miCalmClear
7:53 AM19.0 °F12.9 °F77 %30.42 in10.0 miSouth (190°)3.5 mphClear
8:53 AM25.0 °F15.1 °F66 %30.39 in10.0 miCalmClear
9:53 AM30.0 °F17.1 °F59 %30.36 in10.0 miCalmClear
10:53 AM37.0 °F19.9 °F50 %30.31 in10.0 miCalmClear
11:53 AM43.0 °F17.1 °F35 %30.26 in10.0 miCalmClear
12:53 PM44.1 °F23.0 °F43 %30.23 in10.0 miNNE (20°)6.9 mphClear
1:53 PM46.0 °F21.0 °F37 %30.19 in10.0 miNNE (20°)8.1 mphClear
2:53 PM51.1 °F16.0 °F25 %30.16 in10.0 miVariable3.5 mphClear
3:53 PM51.1 °F10.0 °F19 %30.15 in10.0 miSSW (200°)8.1 mphClear
4:53 PM48.9 °F14.0 °F25 %30.15 in10.0 miSW (220°)4.6 mphClear
5:53 PM39.9 °F21.0 °F47 %30.19 in10.0 miCalmClear
6:53 PM36.0 °F23.0 °F59 %30.21 in10.0 miCalmClear
7:53 PM34.0 °F21.9 °F61 %30.19 in10.0 miSouth (190°)8.1 mphClear
8:53 PM33.1 °F21.9 °F64 %30.16 in10.0 miSSW (200°)3.5 mphClear
9:53 PM30.0 °F19.9 °F66 %30.14 in10.0 miVariable3.5 mphClear
10:53 PM28.0 °F19.0 °F69 %30.11 in10.0 miCalmClear
11:53 PM28.0 °F18.0 °F66 %30.08 in10.0 miCalmClear
Hourly data recorded from KTVL, located miles away from South Lake Tahoe, California







STORIES FROM OUR PARTNERS